Weather in Seoul

South Korea     37°34′14″N   126°58′36″E
temp.,
°C
wind,
m/s
gust,
m/s
humid.,
%
clouds,
%
prec.,
mm/h
press.,
hPa
HPBL,
m
15 may, sat
sat1500:00+23s1154100 0.0 101045
03:00+22ssw1262100 0.0 100976
06:00+21sse2567100 0.0 1009448
09:00+20e2476100 0.7 1009391
12:00+21e2371100 0.9 1007500
15:00+20e2377100 1.1 1006283
18:00+19ese1284100 0.4 1005169
21:00+19e1191100 1.0 1006108
16 may, sun
sun1600:00+19e1292100 0.1 1005101
03:00+19ene1297100 5.4 1003152
06:00+18ene2499100 13.9 1001204
09:00+18ene2399100 31.1 1001134
12:00+18ene3795100 12.1 1001375
15:00+17ne2492100 14.3 1001349
18:00+17ne3584100 0.0 1002426
21:00+16ne2584100 0.0 1004293
17 may, mon
mon1700:00+15ene2378100 0.0 1004204
03:00+14ene2382100 0.7 1005225
06:00+13ene3589100 3.1 1006273
09:00+12ene3591100 6.0 1008287
12:00+13ene3585100 0.1 1009316
15:00+12ene2490100 2.1 1009266
18:00+12ene2391100 1.5 1010221
21:00+12ne11920 1.5 101195
18 may, tue
tue1800:00+12ene1193100 0.0 101215
03:00+12ene1192100 0.0 101151
06:00+12se119293 0.0 101321
09:00+16nne22735 0.0 1013384
12:00+22wsw114883 0.0 1012922
15:00+25w333884 0.0 10111295
18:00+22wsw2250100 0.0 1010514
21:00+18wsw1261100 0.0 1012141
19 may, wed
wed1900:00+17w1168100 0.0 101251
03:00+16w127513 0.0 101374
06:00+15wsw11810 0.0 101425
09:00+20wsw11580 0.0 1014454
12:00+25wnw223719 0.0 10131142
15:00+27w33280 0.0 10111571
18:00+24w3342100 0.0 1011467
21:00+21wsw1147100 0.0 101349